UFO 2 (USA 95)

Last updated on Thu Nov 21 2024 00:02:40 GMT+0000 (Coordinated Universal Time)

1 22787U 93056A 24325.22955341 .00000123 00000+0 00000+0 0 9990 2 22787 11.7042 6.5736 0004517 229.3605 295.1211 1.00271831112798
UTC large
Height (km)
Speed (km/s)
/
Latitude / Longitude
Inclination (degrees)
Orbital Period (minutes)
Azimuth
Elevation
Range (km)
Doppler Factor

Next 0 passes for location: London (51.5072 / 0.1276)

Sorry there are no passes over London.